Overview Statistics Trail Chart Weather Telemetry Raw packets
 

This is the latest recevied weather packets stored in our database for station/object EB2EMZ-W. If no packets are shown the sender has not sent any weather packets the latest 10 day(s).

<< 14 15 16 17 >>
Time Temp. Humidity Pressure Rain* Wind** Luminosity Snow
1787798311 22.78° C 39% 994 hPa 0 mm - - -
1787796490 23.33° C 35% 994 hPa 0 mm - - -
1787794670 23.89° C 34% 994 hPa 0 mm - - -
1787792849 23.89° C 33% 994 hPa 0 mm - - -
1787791028 23.89° C 32% 994 hPa 0 mm - - -
1787789208 24.44° C 31% 994 hPa 0 mm - - -
1787787388 24.44° C 27% 994 hPa 0 mm - - -
1787784728 25° C 23% 994 hPa 0 mm - - -
1787782907 25.56° C 22% 994 hPa 0 mm - - -
1787781087 25° C 23% 994 hPa 0 mm - - -
1787779266 24.44° C 45% 994 hPa 0 mm - - -
1787777446 25.56° C 25% 994 hPa 0 mm - - -
1787775625 26.11° C 20% 994 hPa 0 mm - - -
1787773805 25° C 36% 993 hPa 0 mm - - -
1787771990 25.56° C 40% 993 hPa 0 mm - - -
1787770164 26.11° C 32% 993 hPa 0 mm - - -
1787768344 27.22° C 25% 992 hPa 0 mm - - -
1787766523 26.67° C 33% 992 hPa 0 mm - - -
1787764703 27.22° C 31% 992 hPa 0 mm - - -
1787762882 27.78° C 29% 992 hPa 0 mm - - -

* Rain latest hour (hover to see other rain measurements)
** Current wind speed in m/s (hover to see current wind gust speed)